Regional Weather Roundup
Issued by NWS Upton, NY

Current Version | Previous Version | Text Only | Print | Product List | Glossary On
Versions: 1 2 3 4 5 6 7 8 9 10 11 12 13 14 15 16 17 18 19 20 21 22 23 24 25 26 27 28 29 30 31 32 33 34 35 36 37 38 39 40 41 42 43 44 45 46 47 48 49 50
000 ASUS41 KOKX 291504 RWROKX REGIONAL WEATHER ROUNDUP NATIONAL WEATHER SERVICE NEW YORK NY 1100 AM EDT THU SEP 29 2016 NOTE: "FAIR" INDICATES FEW OR NO CLOUDS BELOW 12,000 FEET WITH NO SIGNIFICANT WEATHER AND/OR OBSTRUCTIONS TO VISIBILITY. NYZ071-072-176-178-NJZ106-104-291600- NEW YORK CITY METRO AREA CITY SKY/WX TMP DP RH WIND PRES REMARKS Central Park CLOUDY 61 53 75 E9G24 30.39R LaGuardia APRT CLOUDY 64 54 69 E18G26 30.36R Kennedy INTL CLOUDY 62 54 74 NE14G24 30.37R Newark/Liberty CLOUDY 62 54 74 NE18G28 30.35R Bronx Bot Gard N/A 59 50 72 E12 30.39S Wall St Helipt CLOUDY 64 59 82 E21 30.35R Teterboro CLOUDY 61 50 67 NE12G20 30.35S $$ NYZ177-179-078>081-291600- LONG ISLAND NEW YORK CITY SKY/WX TMP DP RH WIND PRES REMARKS Farmingdale CLOUDY 61 53 75 NE18G25 30.36S MacArthur/ISP CLOUDY 61 53 75 NE15G29 30.36R Shirley CLOUDY 60 52 74 NE10 30.38R Riverhead NOT AVBL Westhampton CLOUDY 60 52 74 NE17G26 30.38R Southampton N/A 61 54 77 NE13 30.35R Bridgehampton N/A 59 54 82 E6 30.23S East Hampton CLOUDY 58 51 77 NE14G28 30.38R Montauk N/A 60 53 77 NE16G26 30.40S $$ NYZ052-065-067-291600- HUDSON VALLEY CITY SKY/WX TMP DP RH WIND PRES REMARKS White Plains CLOUDY 59 50 72 NE9 30.38R Newburgh CLOUDY 59 52 77 E12 30.41R Montgomery CLOUDY 59 49 69 NE12 30.40R Poughkeepsie CLOUDY 60 48 64 NE9 30.39R Albany MOSUNNY 63 45 51 NE9 30.44S $$ NJZ001-105-106-008-010-013-015-019>022-104-291600- NEW JERSEY CITY SKY/WX TMP DP RH WIND PRES REMARKS Newark/Liberty CLOUDY 62 54 74 NE18G28 30.35R Teterboro CLOUDY 61 50 67 NE12G20 30.35S Caldwell CLOUDY 62 52 69 E15G24 30.36R Morristown CLOUDY 61 54 77 E14G24 30.37R Somerville CLOUDY 61 52 72 E7 30.33R Linden NOT AVBL Sussex CLOUDY 58 52 80 NE9 30.37R Abdover N/A 58 51 78 VRB5 30.35S Trenton CLOUDY 60 58 92 E14G22 30.31R FOG Millville CLOUDY 66 65 96 E18 30.24S Atlantic City LGT RAIN 65 62 90 E18G32 30.26R Wrightstown CLOUDY 62 61 95 E17G25 30.27R Toms River LGT RAIN 63 61 93 E13G31 30.31R Belmar CLOUDY 62 59 90 E20G31 30.33R $$ PAZ047>061-062-071-291600- EASTERN PENNSYLVANIA CITY SKY/WX TMP DP RH WIND PRES REMARKS Philadelphia LGT RAIN 65 62 90 E17G28 30.27S Allentown CLOUDY 59 53 80 E17G25 30.31S Scranton CLOUDY 56 52 86 NE10 30.31R $$ CTZ002-004>006-009-010-012-RIZ004-006-007-MAZ004-011-015-291600- SOUTHERN NEW ENGLAND IN CT CITY SKY/WX TMP DP RH WIND PRES REMARKS Bradley INTL PTSUNNY 62 44 51 NE20 30.44F Hartford SUNNY 62 46 55 NE16 30.42F Danbury CLOUDY 58 48 69 NE12G20 30.40R Wtrbury/Oxford PTSUNNY 57 45 62 E9G21 30.41R Bridgeport CLOUDY 62 49 62 NE17 30.38R Meriden MOSUNNY 65 48 54 NE15G23 30.41S New Haven CLOUDY 63 48 58 NE14 30.39R Chester FAIR 63 48 59 NE15 30.40R Groton MOSUNNY 64 50 60 NE17G26 30.40R Wilimantic PTSUNNY 61 48 62 NE17 30.43F IN RI CITY SKY/WX TMP DP RH WIND PRES REMARKS Providence PTSUNNY 60 48 64 NE23G29 30.44S Block Island CLOUDY 59 53 80 NE16G29 30.39S Westerly CLOUDY 60 48 64 NE18G29 30.42R IN MA CITY SKY/WX TMP DP RH WIND PRES REMARKS Boston CLOUDY 57 50 77 NE16G25 30.48S Worcester CLOUDY 50 43 77 NE12G25 30.47S Westfield SUNNY 61 43 51 NE10G20 30.46S Provincetown CLOUDY 58 52 80 NE18G24 30.46R Nantucket CLOUDY 60 54 80 NE18G28 30.39S $$ ANZ330-335-338-340-345-350-353-355-291600- COASTAL MARINE OBSERVATIONS STATION/POSITION TIME SKY/WX TEMP WIND PRES VSBY WAVE AIR SEA DIR/SP/G HT/PER (UTC) (F) (DEG/KT/KT) (MB) (MI) (FT/S) NY HARB ENTRANCE 1350 64 70 60/ 27/ 33 1025.6 9/ 8 20S FIRE ISLAND 1350 63 69 70/ 27/ 33 1025.3 10/ 8 GREAT SOUTH BAY 1430 61 67 30/ 17/ 21 N/A 23 SSW MONTAUK P 1350 61 65 40/ 25/ 31 1027.5 9/ 7 15 E BARNEGAT LI 1400 70 N/A 10/ 8 HUDSON CANYON 1350 66 69 1024.5 10/ 8 KINGS POINT 1424 60 71 1027.8 EXECUTION ROCKS 1445 63 60/ 21/ 29 N/A CENTRAL LI SOUND NOT AVBL EASTERN LI SOUND NOT AVBL ROBBINS REEF 1424 61 70/ 24/ 28 1027.2 $$ >>>>>>>>>>>>>>>>>>>>>>>>>>>> KEY <<<<<<<<<<<<<<<<<<<<<<<<<<< > < > SKY/WX - Sky Condition/Present Weather < > TMP - Temperature in Fahrenheit < > DP - Dew Point in Fahrenheit < > RH - Relative Humidity in Percent < > WIND - Direction (from) and Speed in MPH < > PRES - Mean Sea Level Pressure (inches of Hg) < > WCI - Wind Chill Index < > VSB - VISIBILITY IN MILES < > HX - HEAT INDEX < > TC - TEMPERATURE IN CELSIUS < > VRB - VARIABLE WIND DIRECTION < > < >>>>>>>>>>>>>>>>>>>>>>>>>>>> KEY <<<<<<<<<<<<<<<<<<<<<<<<<<<

USA.gov is the U.S. government's official web portal to all federal, state and local government web resources and services.